Regional Weather Roundup
Issued by NWS Albany, NY

Home | Current Version | Previous Version | Text Only | Print | Product List | Glossary Off
Versions: 1 2 3 4 5 6 7 8 9 10 11 12 13 14 15 16 17 18 19 20 21 22 23 24 25 26 27 28 29 30 31 32 33 34 35 36 37 38 39 40 41 42 43 44 45 46 47 48 49 50

917
ASUS41 KALY 261610
RWRALY

NEW YORK STATE HOURLY WEATHER ROUNDUP
NATIONAL WEATHER SERVICE ALBANY NY
1200 PM EDT FRI MAY 26 2017

NOTE: "FAIR" INDICATES FEW OR NO CLOUDS BELOW 12,000 FEET WITH NO
SIGNIFICANT WEATHER AND/OR NO OBSTRUCTIONS TO VISIBILITY.

NYZ032-033-038>043-046>054-057>066-NYZ062>081-082-084-261700-
EAST


CITY           SKY/WX    TMP DP  RH WIND       PRES   REMARKS
ALBANY         CLOUDY    59  53  80 N3        29.58R
GLENS FALLS    NOT AVBL
POUGHKEEPSIE   CLOUDY    63  57  81 SW7       29.56F
NEWBURGH       PTSUNNY   66  61  82 W12G21    29.59S
MONTGOMERY     MOSUNNY   69  57  65 NW17G25   29.57S
WHITE PLAINS   PTSUNNY   68  58  70 NW15G21   29.58R
ISLIP          PTSUNNY   69  58  67 W13G22    29.58R
NEW YORK CITY  PTSUNNY   70  57  63 W12       29.58S
CENTRAL PARK   CLOUDY    68  58  70 VRB3      29.61S
$$

NYZ005>009-017-018-044>046-055-056-261700-
CENTRAL


CITY           SKY/WX    TMP DP  RH WIND       PRES   REMARKS
FULTON         LGT RAIN  56  54  93 NW10      29.67R FOG
SYRACUSE       CLOUDY    58  56  93 NW12      29.64R
ROME           CLOUDY    59  55  87 W12       29.62R
ELMIRA         MOSUNNY   67  53  61 W10       29.65F
BINGHAMTON     LGT RAIN  57  51  80 W9        29.65R
MONTICELLO     CLOUDY    61  55  82 NW10G20   29.63S
$$

NYZ026>034-041>043-087-261700-
NORTH


CITY           SKY/WX    TMP DP  RH WIND       PRES   REMARKS
WATERTOWN      CLOUDY    60  56  86 N7        29.64R
FORT DRUM      NOT AVBL
OGDENSBURG     LGT RAIN  56  55  94 N7        29.65R
MASSENA        LGT RAIN  56  53  90 NE6       29.64R
SARANAC LAKE   LGT RAIN  52  51  97 VRB3      29.58R FOG
PLATTSBURGH    LGT RAIN  54  52  93 N13G18    29.59R FOG
$$

NYZ001>004-010>016-019>021-085-261700-
WEST


CITY           SKY/WX    TMP DP  RH WIND       PRES   REMARKS
NIAGARA FALLS  CLOUDY    61  55  81 NW10      29.71S
BUFFALO        LGT RAIN  58  55  90 W9        29.72S
DUNKIRK        CLOUDY    54  54 100 SW13      29.76R
JAMESTOWN      CLOUDY    55  50  82 W10G18    29.77R
WELLSVILLE     CLOUDY    58  52  80 W14       29.73R
ROCHESTER      CLOUDY    60  55  83 NW12      29.70R
PENN YAN       CLOUDY    61  51  70 NW7       29.67R
$$

             KEY
       WCI = WIND CHILL INDEX
       VSB = VISIBILITY
       HX  = HEAT INDEX
$$




USA.gov is the U.S. government's official web portal to all federal, state and local government web resources and services.